Location: Seattle
(47.6060°N, 122.3310°W)
Time: 10:54:24
(UTC-08:00)

N. Korean satellite - Visible Passes

Search period start: 21 January 2021 00:00
Search period end: 31 January 2021 00:00
Orbit: 453 x 502 km, 97.2° (Epoch: 20 January)

Date Brightness Start Highest point End Pass type
(mag) Time Alt. Az. Time Alt. Az. Time Alt. Az.
21 Jan 9.2 04:50:34 10° NE 04:53:06 19° E 04:55:36 10° SE visible
21 Jan 7.2 06:23:22 10° N 06:26:30 31° WNW 06:29:35 10° SW visible
22 Jan 6.3 05:56:32 10° N 06:00:01 65° WNW 06:03:26 10° SSW visible
23 Jan 7.1 05:30:00 10° NNE 05:33:26 56° E 05:36:49 10° S visible
23 Jan 8.4 07:04:55 10° NW 07:06:18 12° WNW 07:07:40 10° W visible
23 Jan 9.7 17:42:02 10° SW 17:44:39 18° W 17:47:16 10° NW visible
24 Jan 8.6 05:03:46 10° NE 05:06:45 26° E 05:09:41 10° SSE visible
24 Jan 7.7 06:37:13 10° NNW 06:39:58 22° WNW 06:42:40 10° WSW visible
25 Jan 9.7 04:38:11 10° ENE 04:39:57 13° E 04:41:41 10° ESE visible
25 Jan 6.7 06:10:13 10° N 06:13:31 43° WNW 06:16:48 10° SW visible
26 Jan 6.4 05:43:30 10° NNE 05:46:59 85° ESE 05:50:24 10° SSW visible
26 Jan 10.0 17:56:33 10° WSW 17:58:20 13° W 18:00:06 10° WNW visible
27 Jan 7.9 05:17:05 10° NNE 05:20:21 38° E 05:23:33 10° SSE visible
27 Jan 8.1 06:51:12 10° NNW 06:53:22 16° WNW 06:55:32 10° WSW visible
28 Jan 9.2 04:51:04 10° NE 04:53:35 19° E 04:56:04 10° SE visible
28 Jan 7.2 06:23:55 10° N 06:26:59 30° WNW 06:30:00 10° SW visible
29 Jan 6.3 05:57:03 10° N 06:00:29 63° WNW 06:03:51 10° SSW visible
30 Jan 7.0 05:30:29 10° NNE 05:33:53 57° E 05:37:14 10° S visible
30 Jan 9.7 17:42:38 10° SW 17:45:08 18° W 17:47:38 10° NW visible
